| time (UTC) | temp F | wind direction | speed MPH | gust MPH | rain 1hr in | rain 24hr in | rain mn in | humidity % | barometer mb |
| 20260902203003 | 52 | 317 | 6.0 | 10.0 | 0.00 | 0.00 | 0.00 | 88 | 1015.6 |
| 20260902202504 | 52 | 321 | 6.0 | 15.0 | 0.00 | 0.01 | 0.00 | 88 | 1015.5 |
| 20260902202025 | 52 | 329 | 6.0 | 15.0 | 0.00 | 0.01 | 0.00 | 88 | 1015.4 |
| 20260902201504 | 52 | 323 | 7.0 | 13.0 | 0.00 | 0.01 | 0.00 | 88 | 1015.4 |
| 20260902201004 | 52 | 310 | 7.0 | 11.0 | 0.00 | 0.01 | 0.00 | 88 | 1015.3 |
| 20260902200525 | 52 | 307 | 6.0 | 13.0 | 0.00 | 0.01 | 0.00 | 88 | 1015.2 |
| 20260902200004 | 52 | 317 | 6.0 | 13.0 | 0.00 | 0.01 | 0.00 | 87 | 1015.1 |
| 20260902195525 | 52 | 323 | 6.0 | 9.0 | 0.00 | 0.01 | 0.00 | 87 | 1015.1 |
| 20260902195025 | 52 | 323 | 6.0 | 10.0 | 0.00 | 0.01 | 0.00 | 87 | 1015.1 |
| 20260902194504 | 52 | 321 | 7.0 | 10.0 | 0.00 | 0.01 | 0.00 | 87 | 1015.0 |
| 20260902194025 | 52 | 318 | 8.0 | 11.0 | 0.00 | 0.01 | 0.00 | 87 | 1015.0 |
| 20260902193504 | 52 | 322 | 8.0 | 14.0 | 0.00 | 0.01 | 0.00 | 87 | 1014.8 |
| 20260902193004 | 52 | 319 | 8.0 | 14.0 | 0.00 | 0.01 | 0.00 | 86 | 1014.7 |
| 20260902192504 | 52 | 316 | 8.0 | 14.0 | 0.00 | 0.01 | 0.00 | 86 | 1014.6 |
| 20260902192004 | 52 | 320 | 8.0 | 13.0 | 0.00 | 0.01 | 0.00 | 86 | 1014.6 |
| 20260902191504 | 53 | 316 | 8.0 | 13.0 | 0.00 | 0.01 | 0.00 | 86 | 1014.6 |
| 20260902191004 | 53 | 310 | 8.0 | 13.0 | 0.00 | 0.01 | 0.00 | 86 | 1014.6 |
| 20260902190525 | 53 | 308 | 8.0 | 13.0 | 0.00 | 0.01 | 0.00 | 85 | 1014.5 |
| 20260902190025 | 53 | 304 | 9.0 | 13.0 | 0.00 | 0.01 | 0.00 | 85 | 1014.4 |
| 20260902185504 | 53 | 295 | 9.0 | 15.0 | 0.00 | 0.01 | 0.00 | 85 | 1014.4 |
| 20260902185004 | 53 | 291 | 9.0 | 15.0 | 0.00 | 0.01 | 0.00 | 84 | 1014.4 |
| 20260902184504 | 53 | 292 | 9.0 | 14.0 | 0.00 | 0.01 | 0.00 | 84 | 1014.3 |
| 20260902184025 | 54 | 291 | 9.0 | 15.0 | 0.00 | 0.01 | 0.00 | 84 | 1014.4 |
| 20260902183525 | 54 | 290 | 9.0 | 15.0 | 0.00 | 0.01 | 0.00 | 83 | 1014.3 |
| 20260902183004 | 54 | 290 | 9.0 | 18.0 | 0.00 | 0.01 | 0.00 | 83 | 1014.3 |
| 20260902182504 | 54 | 291 | 10.0 | 18.0 | 0.00 | 0.01 | 0.00 | 83 | 1014.2 |
| 20260902182004 | 54 | 288 | 9.0 | 17.0 | 0.00 | 0.01 | 0.00 | 82 | 1014.1 |
| 20260902181525 | 54 | 287 | 9.0 | 17.0 | 0.00 | 0.01 | 0.00 | 82 | 1014.2 |
| 20260902181004 | 54 | 292 | 9.0 | 14.0 | 0.00 | 0.01 | 0.00 | 82 | 1014.2 |
| 20260902180504 | 54 | 294 | 10.0 | 14.0 | 0.00 | 0.01 | 0.00 | 81 | 1014.2 |
| 20260902180006 | 54 | 294 | 9.0 | 15.0 | 0.00 | 0.01 | 0.00 | 81 | 1014.1 |
| 20260902175504 | 54 | 297 | 9.0 | 15.0 | 0.00 | 0.01 | 0.00 | 81 | 1014.1 |
| 20260902175004 | 54 | 297 | 9.0 | 14.0 | 0.00 | 0.01 | 0.00 | 80 | 1014.1 |
| 20260902174504 | 54 | 295 | 9.0 | 13.0 | 0.00 | 0.01 | 0.00 | 80 | 1014.1 |
| 20260902174004 | 54 | 291 | 10.0 | 15.0 | 0.00 | 0.01 | 0.00 | 80 | 1014.1 |
| 20260902173504 | 54 | 290 | 10.0 | 15.0 | 0.00 | 0.01 | 0.00 | 80 | 1014.1 |
| 20260902173004 | 54 | 293 | 9.0 | 14.0 | 0.00 | 0.01 | 0.00 | 79 | 1014.1 |
| 20260902172504 | 54 | 298 | 9.0 | 15.0 | 0.00 | 0.01 | 0.00 | 79 | 1014.2 |
| 20260902172004 | 54 | 302 | 8.0 | 15.0 | 0.00 | 0.01 | 0.00 | 80 | 1014.2 |
| 20260902171504 | 54 | 309 | 6.0 | 14.0 | 0.00 | 0.01 | 0.00 | 80 | 1014.3 |
| 20260902171004 | 54 | 312 | 6.0 | 13.0 | 0.00 | 0.01 | 0.00 | 81 | 1014.3 |
| 20260902170504 | 54 | 316 | 7.0 | 10.0 | 0.00 | 0.01 | 0.00 | 80 | 1014.4 |
| 20260902170004 | 54 | 317 | 7.0 | 13.0 | 0.00 | 0.01 | 0.00 | 80 | 1014.4 |
| 20260902165504 | 54 | 309 | 8.0 | 13.0 | 0.00 | 0.01 | 0.00 | 79 | 1014.6 |
| 20260902165025 | 54 | 307 | 7.0 | 13.0 | 0.00 | 0.01 | 0.00 | 79 | 1014.6 |
| 20260902164504 | 54 | 301 | 6.0 | 13.0 | 0.00 | 0.01 | 0.00 | 79 | 1014.6 |
| 20260902164004 | 54 | 298 | 7.0 | 10.0 | 0.00 | 0.01 | 0.00 | 80 | 1014.6 |
| 20260902163504 | 54 | 303 | 7.0 | 10.0 | 0.00 | 0.01 | 0.00 | 80 | 1014.6 |
| 20260902163004 | 54 | 307 | 6.0 | 10.0 | 0.00 | 0.01 | 0.00 | 80 | 1014.6 |
| 20260902162504 | 54 | 308 | 7.0 | 13.0 | 0.00 | 0.01 | 0.00 | 80 | 1014.7 |
| 20260902162004 | 54 | 308 | 8.0 | 13.0 | 0.00 | 0.01 | 0.00 | 80 | 1014.7 |
| 20260902161504 | 54 | 309 | 8.0 | 15.0 | 0.00 | 0.01 | 0.00 | 80 | 1014.8 |
| 20260902161025 | 54 | 304 | 8.0 | 15.0 | 0.00 | 0.01 | 0.00 | 79 | 1014.8 |
| 20260902160504 | 55 | 296 | 9.0 | 14.0 | 0.00 | 0.01 | 0.00 | 77 | 1014.9 |
| 20260902160006 | 55 | 295 | 8.0 | 13.0 | 0.00 | 0.01 | 0.00 | 77 | 1014.9 |
| 20260902155525 | 55 | 297 | 8.0 | 13.0 | 0.00 | 0.01 | 0.00 | 78 | 1014.9 |
| 20260902155004 | 55 | 298 | 8.0 | 13.0 | 0.00 | 0.01 | 0.00 | 78 | 1014.9 |
| 20260902154504 | 55 | 296 | 9.0 | 13.0 | 0.00 | 0.01 | 0.00 | 78 | 1014.9 |
| 20260902154004 | 55 | 291 | 9.0 | 14.0 | 0.00 | 0.01 | 0.00 | 79 | 1014.9 |
| 20260902153504 | 55 | 292 | 9.0 | 14.0 | 0.00 | 0.01 | 0.00 | 79 | 1014.9 |
| 20260902153004 | 55 | 294 | 9.0 | 15.0 | 0.00 | 0.01 | 0.00 | 79 | 1015.0 |
| 20260902152525 | 55 | 292 | 10.0 | 15.0 | 0.00 | 0.01 | 0.00 | 79 | 1015.0 |
| 20260902152004 | 55 | 290 | 10.0 | 14.0 | 0.00 | 0.01 | 0.00 | 80 | 1014.9 |
| 20260902151504 | 55 | 292 | 10.0 | 15.0 | 0.00 | 0.01 | 0.00 | 80 | 1014.9 |
| 20260902151004 | 55 | 293 | 10.0 | 15.0 | 0.00 | 0.01 | 0.00 | 80 | 1015.0 |
| 20260902150504 | 55 | 294 | 10.0 | 15.0 | 0.00 | 0.01 | 0.00 | 80 | 1014.9 |
| 20260902150004 | 55 | 294 | 11.0 | 17.0 | 0.00 | 0.01 | 0.00 | 80 | 1014.9 |
| 20260902145504 | 55 | 291 | 11.0 | 17.0 | 0.00 | 0.01 | 0.00 | 80 | 1015.0 |
| 20260902145003 | 55 | 287 | 11.0 | 17.0 | 0.00 | 0.01 | 0.00 | 80 | 1015.0 |
| 20260902144504 | 54 | 286 | 10.0 | 17.0 | 0.00 | 0.01 | 0.00 | 80 | 1015.1 |
| 20260902144004 | 54 | 287 | 9.0 | 17.0 | 0.00 | 0.01 | 0.00 | 80 | 1015.1 |
| 20260902143504 | 54 | 286 | 9.0 | 14.0 | 0.00 | 0.01 | 0.00 | 80 | 1015.1 |
| 20260902143006 | 54 | 286 | 9.0 | 14.0 | 0.00 | 0.01 | 0.00 | 81 | 1015.1 |
| 20260902142504 | 54 | 288 | 9.0 | 14.0 | 0.00 | 0.01 | 0.01 | 81 | 1015.1 |
| 20260902142004 | 54 | 290 | 9.0 | 15.0 | 0.00 | 0.01 | 0.01 | 81 | 1015.1 |
| 20260902141504 | 54 | 291 | 8.0 | 15.0 | 0.00 | 0.01 | 0.01 | 80 | 1015.2 |
| 20260902141003 | 54 | 294 | 8.0 | 13.0 | 0.00 | 0.01 | 0.01 | 80 | 1015.1 |
| 20260902140503 | 54 | 296 | 9.0 | 11.0 | 0.00 | 0.01 | 0.01 | 80 | 1015.2 |
| 20260902140004 | 55 | 296 | 9.0 | 13.0 | 0.00 | 0.01 | 0.01 | 80 | 1015.2 |
| 20260902135525 | 55 | 295 | 9.0 | 15.0 | 0.00 | 0.01 | 0.01 | 80 | 1015.2 |
| 20260902135004 | 55 | 296 | 9.0 | 15.0 | 0.00 | 0.02 | 0.01 | 79 | 1015.3 |
| 20260902134525 | 55 | 289 | 9.0 | 14.0 | 0.00 | 0.02 | 0.01 | 79 | 1015.3 |
| 20260902134004 | 55 | 274 | 9.0 | 14.0 | 0.00 | 0.02 | 0.01 | 78 | 1015.3 |
| 20260902133525 | 55 | 270 | 9.0 | 14.0 | 0.00 | 0.02 | 0.01 | 79 | 1015.3 |
| 20260902133003 | 55 | 276 | 8.0 | 14.0 | 0.00 | 0.02 | 0.01 | 80 | 1015.4 |
| 20260902132524 | 55 | 276 | 7.0 | 14.0 | 0.00 | 0.02 | 0.01 | 81 | 1015.4 |
| 20260902132004 | 55 | 277 | 5.0 | 14.0 | 0.00 | 0.02 | 0.01 | 81 | 1015.4 |
| 20260902131503 | 55 | 288 | 5.0 | 9.0 | 0.00 | 0.02 | 0.01 | 81 | 1015.4 |
| 20260902131004 | 55 | 288 | 5.0 | 9.0 | 0.00 | 0.02 | 0.01 | 81 | 1015.4 |
| 20260902130504 | 55 | 283 | 6.0 | 10.0 | 0.00 | 0.02 | 0.01 | 80 | 1015.3 |
| 20260902130004 | 55 | 278 | 6.0 | 10.0 | 0.00 | 0.02 | 0.01 | 80 | 1015.4 |
| 20260902125504 | 55 | 271 | 6.0 | 10.0 | 0.00 | 0.02 | 0.01 | 80 | 1015.4 |
| 20260902125003 | 55 | 268 | 6.0 | 10.0 | 0.00 | 0.02 | 0.01 | 79 | 1015.4 |
| 20260902124524 | 55 | 272 | 6.0 | 10.0 | 0.00 | 0.02 | 0.01 | 79 | 1015.4 |
| 20260902124003 | 55 | 274 | 6.0 | 9.0 | 0.00 | 0.02 | 0.01 | 79 | 1015.4 |
| 20260902123503 | 55 | 268 | 6.0 | 11.0 | 0.00 | 0.02 | 0.01 | 79 | 1015.5 |
| 20260902123003 | 55 | 261 | 7.0 | 11.0 | 0.00 | 0.02 | 0.01 | 78 | 1015.5 |
| 20260902122504 | 55 | 261 | 8.0 | 11.0 | 0.00 | 0.02 | 0.01 | 78 | 1015.5 |
| 20260902122003 | 55 | 262 | 8.0 | 11.0 | 0.00 | 0.02 | 0.01 | 78 | 1015.5 |
| 20260902121504 | 55 | 262 | 8.0 | 13.0 | 0.00 | 0.02 | 0.01 | 78 | 1015.5 |
| 20260902121004 | 55 | 263 | 7.0 | 13.0 | 0.00 | 0.02 | 0.01 | 78 | 1015.5 |
| 20260902120503 | 55 | 264 | 6.0 | 11.0 | 0.00 | 0.02 | 0.01 | 78 | 1015.5 |
| 20260902120004 | 55 | 262 | 6.0 | 10.0 | 0.00 | 0.02 | 0.01 | 78 | 1015.5 |
| 20260902115524 | 55 | 259 | 6.0 | 10.0 | 0.00 | 0.02 | 0.01 | 78 | 1015.5 |
| 20260902115003 | 55 | 251 | 6.0 | 10.0 | 0.00 | 0.02 | 0.01 | 78 | 1015.4 |
| 20260902114504 | 55 | 249 | 6.0 | 11.0 | 0.00 | 0.02 | 0.01 | 77 | 1015.3 |
| 20260902114003 | 55 | 249 | 7.0 | 11.0 | 0.00 | 0.02 | 0.01 | 77 | 1015.3 |
| 20260902113503 | 55 | 249 | 8.0 | 10.0 | 0.00 | 0.02 | 0.01 | 76 | 1015.2 |
| 20260902113024 | 55 | 257 | 7.0 | 13.0 | 0.00 | 0.02 | 0.01 | 76 | 1015.2 |
| 20260902112504 | 55 | 262 | 7.0 | 13.0 | 0.00 | 0.02 | 0.01 | 76 | 1015.1 |
| 20260902112025 | 55 | 259 | 7.0 | 10.0 | 0.00 | 0.02 | 0.01 | 75 | 1015.1 |
| 20260902111503 | 56 | 256 | 8.0 | 14.0 | 0.00 | 0.02 | 0.01 | 75 | 1015.1 |
| 20260902111004 | 56 | 255 | 9.0 | 14.0 | 0.00 | 0.02 | 0.01 | 74 | 1015.0 |
| 20260902110503 | 56 | 259 | 9.0 | 15.0 | 0.00 | 0.02 | 0.01 | 74 | 1015.1 |
| 20260902110025 | 56 | 267 | 9.0 | 15.0 | 0.00 | 0.02 | 0.01 | 74 | 1015.1 |
| 20260902105504 | 56 | 269 | 10.0 | 15.0 | 0.00 | 0.02 | 0.01 | 73 | 1015.1 |
| 20260902105003 | 56 | 272 | 11.0 | 17.0 | 0.00 | 0.02 | 0.01 | 73 | 1015.1 |
| 20260902104525 | 56 | 276 | 10.0 | 17.0 | 0.00 | 0.02 | 0.01 | 72 | 1015.0 |
| 20260902104003 | 56 | 278 | 9.0 | 17.0 | 0.00 | 0.02 | 0.01 | 72 | 1015.0 |
| 20260902103503 | 56 | 279 | 9.0 | 13.0 | 0.00 | 0.02 | 0.01 | 71 | 1015.0 |
| 20260902103003 | 56 | 284 | 8.0 | 11.0 | 0.00 | 0.02 | 0.01 | 71 | 1014.8 |
| 20260902102503 | 56 | 284 | 8.0 | 11.0 | 0.00 | 0.02 | 0.01 | 70 | 1014.7 |
| 20260902102025 | 56 | 281 | 8.0 | 11.0 | 0.00 | 0.02 | 0.01 | 70 | 1014.6 |
| 20260902101503 | 56 | 280 | 8.0 | 13.0 | 0.00 | 0.02 | 0.01 | 70 | 1014.7 |
| 20260902101003 | 56 | 285 | 8.0 | 13.0 | 0.00 | 0.02 | 0.01 | 70 | 1014.7 |
| 20260902100504 | 56 | 287 | 8.0 | 13.0 | 0.00 | 0.02 | 0.01 | 70 | 1014.6 |
| 20260902100025 | 56 | 284 | 8.0 | 11.0 | 0.00 | 0.02 | 0.01 | 69 | 1014.5 |
| 20260902095504 | 56 | 285 | 7.0 | 11.0 | 0.00 | 0.02 | 0.01 | 69 | 1014.6 |
| 20260902095003 | 55 | 283 | 7.0 | 11.0 | 0.00 | 0.02 | 0.01 | 69 | 1014.6 |
| 20260902094525 | 55 | 280 | 8.0 | 10.0 | 0.00 | 0.02 | 0.01 | 69 | 1014.6 |
| 20260902094003 | 55 | 280 | 8.0 | 13.0 | 0.00 | 0.02 | 0.01 | 69 | 1014.5 |
| 20260902093504 | 55 | 282 | 8.0 | 13.0 | 0.00 | 0.02 | 0.01 | 70 | 1014.4 |
| 20260902093004 | 55 | 284 | 8.0 | 11.0 | 0.00 | 0.02 | 0.01 | 70 | 1014.4 |
| 20260902092503 | 55 | 285 | 8.0 | 11.0 | 0.00 | 0.02 | 0.01 | 71 | 1014.4 |
| 20260902092003 | 55 | 286 | 8.0 | 11.0 | 0.00 | 0.02 | 0.01 | 71 | 1014.5 |
| 20260902091503 | 55 | 282 | 8.0 | 13.0 | 0.00 | 0.02 | 0.01 | 71 | 1014.4 |
| 20260902091003 | 55 | 280 | 8.0 | 13.0 | 0.00 | 0.02 | 0.01 | 70 | 1014.2 |
| 20260902090503 | 55 | 283 | 8.0 | 13.0 | 0.00 | 0.02 | 0.01 | 70 | 1014.3 |
| 20260902090004 | 55 | 281 | 8.0 | 13.0 | 0.00 | 0.02 | 0.01 | 70 | 1014.3 |
| 20260902085504 | 55 | 277 | 8.0 | 13.0 | 0.00 | 0.02 | 0.01 | 70 | 1014.2 |
| 20260902085004 | 55 | 279 | 8.0 | 13.0 | 0.00 | 0.02 | 0.01 | 70 | 1014.2 |
| 20260902084503 | 56 | 278 | 8.0 | 14.0 | 0.00 | 0.02 | 0.01 | 70 | 1014.1 |
| 20260902084003 | 56 | 277 | 8.0 | 14.0 | 0.00 | 0.02 | 0.01 | 69 | 1014.1 |
| 20260902083504 | 56 | 277 | 10.0 | 14.0 | 0.00 | 0.02 | 0.01 | 69 | 1014.1 |
| 20260902083003 | 56 | 274 | 10.0 | 15.0 | 0.00 | 0.02 | 0.01 | 68 | 1014.0 |
| 20260902082503 | 56 | 270 | 10.0 | 18.0 | 0.00 | 0.02 | 0.01 | 67 | 1013.9 |
| 20260902082024 | 57 | 267 | 9.0 | 18.0 | 0.00 | 0.02 | 0.01 | 67 | 1013.9 |
| 20260902081504 | 57 | 271 | 9.0 | 17.0 | 0.00 | 0.02 | 0.01 | 68 | 1013.9 |
| 20260902081024 | 58 | 273 | 9.0 | 17.0 | 0.00 | 0.03 | 0.01 | 68 | 1013.8 |
| 20260902080504 | 58 | 279 | 9.0 | 15.0 | 0.00 | 0.03 | 0.01 | 68 | 1013.8 |
| 20260902080004 | 57 | 276 | 9.0 | 15.0 | 0.00 | 0.04 | 0.01 | 69 | 1013.9 |
| 20260902075525 | 57 | 270 | 8.0 | 15.0 | 0.00 | 0.04 | 0.01 | 70 | 1013.8 |
| 20260902075004 | 57 | 268 | 8.0 | 13.0 | 0.00 | 0.04 | 0.01 | 71 | 1013.8 |
| 20260902074504 | 57 | 270 | 9.0 | 15.0 | 0.00 | 0.05 | 0.01 | 71 | 1013.9 |
| 20260902074003 | 57 | 276 | 9.0 | 18.0 | 0.00 | 0.05 | 0.01 | 70 | 1013.8 |
| 20260902073524 | 57 | 276 | 9.0 | 18.0 | 0.00 | 0.05 | 0.01 | 70 | 1013.9 |
| 20260902073003 | 57 | 276 | 11.0 | 14.0 | 0.00 | 0.05 | 0.01 | 71 | 1013.9 |
| 20260902072524 | 57 | 267 | 11.0 | 18.0 | 0.00 | 0.06 | 0.01 | 71 | 1013.9 |
| 20260902072003 | 57 | 260 | 11.0 | 18.0 | 0.00 | 0.07 | 0.01 | 70 | 1013.9 |
| 20260902071504 | 58 | 267 | 10.0 | 18.0 | 0.00 | 0.08 | 0.01 | 69 | 1013.9 |
| 20260902071003 | 58 | 274 | 10.0 | 17.0 | 0.00 | 0.10 | 0.01 | 69 | 1013.9 |
| 20260902070504 | 58 | 271 | 10.0 | 17.0 | 0.00 | 0.13 | 0.01 | 69 | 1013.9 |
| 20260902070005 | 58 | 265 | 10.0 | 19.0 | 0.00 | 0.14 | 0.01 | 69 | 1013.9 |
| 20260902065524 | 58 | 256 | 10.0 | 19.0 | 0.00 | 0.16 | 0.01 | 69 | 1013.9 |
| 20260902065004 | 58 | 245 | 10.0 | 15.0 | 0.00 | 0.20 | 0.01 | 68 | 1013.9 |
| 20260902064504 | 58 | 246 | 10.0 | 18.0 | 0.00 | 0.24 | 0.01 | 68 | 1013.8 |
| 20260902064004 | 59 | 241 | 10.0 | 18.0 | 0.00 | 0.25 | 0.01 | 67 | 1013.8 |
| 20260902063504 | 59 | 241 | 9.0 | 18.0 | 0.00 | 0.28 | 0.01 | 67 | 1013.7 |
| 20260902063004 | 59 | 253 | 8.0 | 18.0 | 0.00 | 0.28 | 0.01 | 67 | 1013.7 |
| 20260902062504 | 59 | 261 | 8.0 | 14.0 | 0.00 | 0.28 | 0.01 | 67 | 1013.8 |
| 20260902062004 | 59 | 260 | 8.0 | 14.0 | 0.00 | 0.28 | 0.01 | 67 | 1013.8 |
| 20260902061504 | 59 | 253 | 9.0 | 14.0 | 0.00 | 0.28 | 0.01 | 66 | 1013.8 |
| 20260902061004 | 59 | 250 | 8.0 | 14.0 | 0.00 | 0.28 | 0.01 | 67 | 1013.8 |
| 20260902060504 | 59 | 252 | 9.0 | 15.0 | 0.00 | 0.28 | 0.01 | 66 | 1013.9 |
| 20260902060004 | 59 | 245 | 9.0 | 15.0 | 0.00 | 0.28 | 0.01 | 65 | 1013.8 |
| 20260902055504 | 59 | 240 | 9.0 | 15.0 | 0.00 | 0.28 | 0.01 | 66 | 1013.8 |
| 20260902055004 | 59 | 243 | 9.0 | 14.0 | 0.00 | 0.28 | 0.01 | 65 | 1013.8 |
| 20260902054504 | 59 | 250 | 9.0 | 14.0 | 0.00 | 0.28 | 0.01 | 65 | 1013.9 |
| 20260902054025 | 59 | 253 | 9.0 | 17.0 | 0.00 | 0.28 | 0.01 | 66 | 1013.9 |
| 20260902053525 | 59 | 254 | 8.0 | 17.0 | 0.00 | 0.28 | 0.01 | 65 | 1013.9 |
| 20260902053004 | 59 | 255 | 7.0 | 14.0 | 0.00 | 0.28 | 0.01 | 65 | 1013.9 |
| 20260902052504 | 60 | 249 | 7.0 | 14.0 | 0.00 | 0.28 | 0.01 | 64 | 1013.9 |
| 20260902052004 | 60 | 252 | 8.0 | 14.0 | 0.00 | 0.28 | 0.01 | 66 | 1013.9 |
| 20260902051504 | 59 | 261 | 7.0 | 14.0 | 0.00 | 0.28 | 0.01 | 65 | 1014.0 |
| 20260902051025 | 59 | 259 | 7.0 | 11.0 | 0.00 | 0.28 | 0.01 | 65 | 1014.1 |
| 20260902050504 | 60 | 255 | 8.0 | 11.0 | 0.00 | 0.28 | 0.01 | 64 | 1014.1 |
| 20260902050007 | 60 | 252 | 8.0 | 11.0 | 0.00 | 0.28 | 0.01 | 66 | 1014.1 |
| 20260902045504 | 60 | 252 | 8.0 | 18.0 | 0.00 | 0.28 | 0.01 | 65 | 1014.1 |
| 20260902045025 | 60 | 256 | 9.0 | 18.0 | 0.00 | 0.28 | 0.01 | 64 | 1014.2 |
| 20260902044525 | 60 | 261 | 9.0 | 14.0 | 0.00 | 0.28 | 0.01 | 65 | 1014.2 |
| 20260902044004 | 60 | 259 | 10.0 | 17.0 | 0.00 | 0.28 | 0.01 | 64 | 1014.2 |
| 20260902043504 | 60 | 253 | 10.0 | 17.0 | 0.00 | 0.28 | 0.01 | 64 | 1014.1 |
| 20260902043004 | 60 | 258 | 10.0 | 17.0 | 0.00 | 0.28 | 0.01 | 65 | 1014.1 |
| 20260902042504 | 60 | 256 | 10.0 | 18.0 | 0.00 | 0.28 | 0.01 | 65 | 1014.2 |
| 20260902042004 | 60 | 244 | 10.0 | 18.0 | 0.00 | 0.28 | 0.01 | 65 | 1014.3 |
| 20260902041504 | 60 | 245 | 10.0 | 17.0 | 0.00 | 0.28 | 0.01 | 64 | 1014.4 |
| 20260902041004 | 60 | 264 | 11.0 | 18.0 | 0.00 | 0.28 | 0.01 | 64 | 1014.4 |
| 20260902040504 | 60 | 280 | 11.0 | 18.0 | 0.00 | 0.28 | 0.01 | 64 | 1014.4 |
| 20260902040004 | 60 | 281 | 11.0 | 17.0 | 0.00 | 0.28 | 0.01 | 64 | 1014.4 |
| 20260902035504 | 60 | 281 | 11.0 | 18.0 | 0.00 | 0.28 | 0.01 | 62 | 1014.5 |
| 20260902035004 | 61 | 277 | 10.0 | 18.0 | 0.00 | 0.28 | 0.01 | 64 | 1014.6 |
| 20260902034505 | 62 | 268 | 9.0 | 18.0 | 0.00 | 0.28 | 0.01 | 63 | 1014.6 |
| 20260902034004 | 62 | 261 | 10.0 | 17.0 | 0.00 | 0.28 | 0.01 | 64 | 1014.6 |
| 20260902033525 | 61 | 262 | 11.0 | 15.0 | 0.00 | 0.28 | 0.01 | 65 | 1014.7 |
| 20260902033004 | 61 | 273 | 11.0 | 17.0 | 0.00 | 0.28 | 0.01 | 64 | 1014.7 |
| 20260902032525 | 61 | 280 | 10.0 | 17.0 | 0.00 | 0.28 | 0.01 | 62 | 1014.7 |
| 20260902032004 | 61 | 280 | 9.0 | 19.0 | 0.00 | 0.28 | 0.01 | 63 | 1014.9 |
| 20260902031504 | 61 | 281 | 10.0 | 19.0 | 0.00 | 0.28 | 0.01 | 64 | 1015.0 |
| 20260902031004 | 61 | 276 | 11.0 | 18.0 | 0.00 | 0.28 | 0.01 | 64 | 1015.0 |
| 20260902030504 | 60 | 252 | 10.0 | 19.0 | 0.00 | 0.28 | 0.01 | 64 | 1015.1 |
| 20260902030004 | 61 | 245 | 10.0 | 19.0 | 0.00 | 0.28 | 0.01 | 63 | 1015.1 |
| 20260902025504 | 61 | 267 | 10.0 | 18.0 | 0.00 | 0.28 | 0.01 | 63 | 1015.1 |
| 20260902025004 | 62 | 264 | 10.0 | 17.0 | 0.00 | 0.28 | 0.01 | 63 | 1015.1 |
| 20260902024525 | 62 | 258 | 10.0 | 18.0 | 0.00 | 0.28 | 0.01 | 65 | 1015.2 |
| 20260902024025 | 61 | 272 | 10.0 | 18.0 | 0.00 | 0.28 | 0.01 | 65 | 1015.4 |
| 20260902023504 | 61 | 272 | 10.0 | 19.0 | 0.00 | 0.28 | 0.01 | 66 | 1015.3 |
| 20260902023004 | 60 | 271 | 10.0 | 15.0 | 0.00 | 0.28 | 0.01 | 65 | 1015.3 |
| 20260902022504 | 61 | 282 | 11.0 | 17.0 | 0.00 | 0.28 | 0.01 | 64 | 1015.4 |
| 20260902022004 | 61 | 278 | 10.0 | 19.0 | 0.00 | 0.28 | 0.01 | 65 | 1015.5 |
| 20260902021504 | 60 | 261 | 8.0 | 19.0 | 0.00 | 0.28 | 0.01 | 65 | 1015.5 |
| 20260902021004 | 59 | 253 | 9.0 | 15.0 | 0.00 | 0.28 | 0.01 | 65 | 1015.5 |
| 20260902020504 | 60 | 258 | 9.0 | 15.0 | 0.00 | 0.28 | 0.01 | 65 | 1015.5 |
| 20260902020025 | 60 | 255 | 9.0 | 15.0 | 0.00 | 0.28 | 0.01 | 66 | 1015.6 |
| 20260902015504 | 60 | 247 | 10.0 | 15.0 | 0.00 | 0.28 | 0.01 | 65 | 1015.6 |
| 20260902015004 | 60 | 241 | 10.0 | 15.0 | 0.00 | 0.28 | 0.01 | 64 | 1015.7 |
| 20260902014504 | 61 | 255 | 10.0 | 14.0 | 0.00 | 0.28 | 0.01 | 66 | 1015.7 |
| 20260902014004 | 60 | 263 | 10.0 | 17.0 | 0.00 | 0.28 | 0.01 | 67 | 1015.8 |
| 20260902013525 | 59 | 254 | 10.0 | 17.0 | 0.00 | 0.28 | 0.01 | 67 | 1015.8 |
| 20260902013004 | 59 | 262 | 10.0 | 17.0 | 0.00 | 0.28 | 0.01 | 67 | 1015.9 |
| 20260902012504 | 59 | 257 | 9.0 | 18.0 | 0.00 | 0.28 | 0.01 | 68 | 1016.1 |
| 20260902012025 | 59 | 266 | 9.0 | 18.0 | 0.00 | 0.28 | 0.01 | 67 | 1016.1 |
| 20260902011504 | 60 | 295 | 9.0 | 15.0 | 0.00 | 0.28 | 0.01 | 68 | 1016.1 |
| 20260902011004 | 59 | 280 | 10.0 | 15.0 | 0.00 | 0.28 | 0.01 | 70 | 1016.2 |
| 20260902010504 | 58 | 259 | 10.0 | 18.0 | 0.00 | 0.28 | 0.01 | 70 | 1016.3 |
| 20260902010025 | 58 | 249 | 10.0 | 18.0 | 0.00 | 0.28 | 0.01 | 70 | 1016.4 |
| 20260902005504 | 58 | 257 | 11.0 | 18.0 | 0.00 | 0.28 | 0.01 | 70 | 1016.4 |
| 20260902005004 | 58 | 268 | 11.0 | 18.0 | 0.00 | 0.28 | 0.01 | 71 | 1016.5 |
| 20260902004525 | 58 | 258 | 10.0 | 18.0 | 0.00 | 0.28 | 0.01 | 70 | 1016.5 |
| 20260902004003 | 58 | 259 | 9.0 | 15.0 | 0.00 | 0.28 | 0.01 | 70 | 1016.5 |
| 20260902003504 | 58 | 262 | 9.0 | 15.0 | 0.00 | 0.28 | 0.01 | 71 | 1016.6 |
| 20260902003004 | 58 | 267 | 9.0 | 15.0 | 0.00 | 0.28 | 0.01 | 72 | 1016.6 |
| 20260902002504 | 58 | 267 | 9.0 | 18.0 | 0.00 | 0.28 | 0.01 | 72 | 1016.6 |
| 20260902002004 | 57 | 259 | 9.0 | 18.0 | 0.00 | 0.28 | 0.01 | 72 | 1016.7 |
| 20260902001504 | 57 | 266 | 9.0 | 15.0 | 0.00 | 0.28 | 0.01 | 72 | 1016.7 |
| 20260902001004 | 58 | 270 | 9.0 | 14.0 | 0.00 | 0.28 | 0.01 | 73 | 1016.7 |
| 20260902000503 | 57 | 269 | 8.0 | 18.0 | 0.00 | 0.28 | 0.01 | 74 | 1016.6 |
| 20260902000004 | 57 | 263 | 8.0 | 18.0 | 0.00 | 0.28 | 0.01 | 74 | 1016.6 |
| 20260901235503 | 57 | 266 | 8.0 | 15.0 | 0.00 | 0.28 | 0.01 | 75 | 1016.5 |
| 20260901235004 | 57 | 269 | 8.0 | 15.0 | 0.00 | 0.28 | 0.01 | 75 | 1016.6 |
| 20260901234504 | 57 | 269 | 8.0 | 15.0 | 0.00 | 0.28 | 0.01 | 76 | 1016.6 |
| 20260901234004 | 57 | 268 | 8.0 | 13.0 | 0.00 | 0.28 | 0.01 | 78 | 1016.6 |
| 20260901233503 | 57 | 265 | 9.0 | 13.0 | 0.00 | 0.28 | 0.01 | 78 | 1016.7 |
| 20260901233004 | 57 | 260 | 8.0 | 15.0 | 0.00 | 0.28 | 0.01 | 77 | 1016.6 |
| 20260901232504 | 57 | 256 | 7.0 | 15.0 | 0.00 | 0.28 | 0.01 | 77 | 1016.7 |
| 20260901232004 | 57 | 256 | 6.0 | 13.0 | 0.00 | 0.28 | 0.01 | 79 | 1016.8 |
| 20260901231503 | 57 | 257 | 6.0 | 10.0 | 0.00 | 0.28 | 0.01 | 81 | 1016.9 |
| 20260901231024 | 56 | 262 | 6.0 | 10.0 | 0.00 | 0.28 | 0.01 | 82 | 1016.9 |
| 20260901230503 | 56 | 262 | 6.0 | 10.0 | 0.00 | 0.28 | 0.01 | 85 | 1016.8 |
| 20260901230004 | 56 | 256 | 6.0 | 10.0 | 0.00 | 0.28 | 0.01 | 85 | 1016.9 |
| 20260901225504 | 56 | 260 | 5.0 | 10.0 | 0.00 | 0.28 | 0.01 | 87 | 1016.8 |
| 20260901225003 | 56 | 269 | 5.0 | 9.0 | 0.00 | 0.28 | 0.01 | 88 | 1016.8 |
| 20260901224504 | 56 | 269 | 5.0 | 10.0 | 0.00 | 0.28 | 0.01 | 89 | 1016.8 |
| 20260901224025 | 55 | 267 | 6.0 | 10.0 | 0.00 | 0.28 | 0.01 | 90 | 1016.8 |
| 20260901223503 | 55 | 281 | 5.0 | 9.0 | 0.00 | 0.28 | 0.01 | 90 | 1016.7 |
| 20260901223004 | 55 | 289 | 5.0 | 9.0 | 0.00 | 0.28 | 0.01 | 91 | 1016.7 |
| 20260901222525 | 55 | 290 | 5.0 | 8.0 | 0.00 | 0.28 | 0.01 | 91 | 1016.6 |
| 20260901222004 | 55 | 293 | 5.0 | 6.0 | 0.00 | 0.28 | 0.01 | 91 | 1016.6 |
| 20260901221503 | 55 | 275 | 6.0 | 10.0 | 0.00 | 0.28 | 0.01 | 92 | 1016.6 |
| 20260901221003 | 54 | 268 | 4.0 | 10.0 | 0.00 | 0.28 | 0.01 | 92 | 1016.6 |
| 20260901220503 | 55 | 276 | 3.0 | 9.0 | 0.00 | 0.28 | 0.01 | 92 | 1016.5 |
| 20260901220025 | 55 | 281 | 3.0 | 8.0 | 0.00 | 0.28 | 0.01 | 92 | 1016.5 |
| 20260901215504 | 55 | 277 | 3.0 | 5.0 | 0.00 | 0.28 | 0.01 | 92 | 1016.4 |
| 20260901215003 | 55 | 277 | 2.0 | 5.0 | 0.00 | 0.28 | 0.01 | 92 | 1016.5 |
| 20260901214503 | 55 | 264 | 2.0 | 5.0 | 0.00 | 0.28 | 0.01 | 92 | 1016.4 |
| 20260901214003 | 55 | 256 | 2.0 | 5.0 | 0.00 | 0.28 | 0.01 | 92 | 1016.3 |
| 20260901213504 | 55 | 257 | 2.0 | 5.0 | 0.00 | 0.28 | 0.01 | 92 | 1016.3 |
| 20260901213004 | 55 | 257 | 1.0 | 5.0 | 0.00 | 0.28 | 0.01 | 92 | 1016.3 |
| 20260901212503 | 55 | 256 | 1.0 | 5.0 | 0.01 | 0.28 | 0.01 | 92 | 1016.3 |
| 20260901212024 | 55 | 252 | 2.0 | 5.0 | 0.01 | 0.28 | 0.01 | 92 | 1016.3 |
| 20260901211503 | 55 | 246 | 2.0 | 5.0 | 0.01 | 0.28 | 0.01 | 92 | 1016.2 |
| 20260901211024 | 55 | 244 | 2.0 | 5.0 | 0.01 | 0.28 | 0.01 | 92 | 1016.1 |
| 20260901210504 | 55 | 245 | 1.0 | 5.0 | 0.01 | 0.28 | 0.01 | 92 | 1016.0 |
| 20260901210003 | 55 | 273 | 1.0 | 4.0 | 0.01 | 0.28 | 0.01 | 92 | 1016.0 |
| 20260901205524 | 55 | 271 | 1.0 | 5.0 | 0.01 | 0.28 | 0.01 | 92 | 1015.9 |
| 20260901205004 | 55 | 271 | 1.0 | 5.0 | 0.01 | 0.28 | 0.01 | 92 | 1015.9 |
| 20260901204503 | 55 | 263 | 1.0 | 5.0 | 0.01 | 0.28 | 0.01 | 92 | 1015.7 |
| 20260901204024 | 55 | 254 | 2.0 | 5.0 | 0.01 | 0.28 | 0.01 | 92 | 1015.8 |
| 20260901203504 | 55 | 251 | 3.0 | 6.0 | 0.01 | 0.28 | 0.01 | 92 | 1015.7 |